ARIANE 5 DEB [SYLDA] (49334 NORAD) Tracking and Keplerian Element Data

This shows tracking and keplerian element data for the satellite.

Feedback or suggestion? Click here.




ElementValue
Catalog49334
NameARIANE 5 DEB [SYLDA]
Epoch Orbit67
Epoch Day326.12075105
Epoch Year2021
RAAN252.6837
Inclination5.8318
Eccentricity0.7249803
Argument of Perigee191.3174
Mean Anonmoly133.282
Mean Motion2.32877406
Decay Rate0.00037686
L11 49334U 21095C 21326.12075105 .00037686 00000+0 73963-2 0 9994
L22 49334 5.8318 252.6837 7249803 191.3174 133.2820 2.32877406 673

Live tracking and technical data element details for ARIANE 5 DEB [SYLDA] (NORAD 49334). ARIANE 5 DEB [SYLDA] can be tracked NOW for your location showing map with azimuth and elevation plus other details from your city location.

Track the satellite on the map from your city or location and see movement details for azimuth, elevation, latitude, longitude, range, height, and movement on the map or in text.







IsCatalogInMostPopularTable: catalog: 49334, numindb: 6
Update: records affected: 1



GetName: 49334 ARIANE 5 DEB [SYLDA]

Hit Count: updated at: Mon, 06 Dec 2021 14:24:02 GMT